Location: Fornova de Taro
(44.7000°N, 10.1000°E)
Time: 19:47:01
(UTC+00:00)

Meteor 1-29 - Pass Details

Date: 26 May 2022
Orbit: 424 x 441 km, 97.7° (Epoch: 02 July)

Event Time Altitude Azimuth Distance (km) Brightness Sun altitude
Rises 03:00:55 0° 16° (NNE) 2,395 7.6 -6.7°
Reaches altitude 10° 03:02:57 10° 19° (NNE) 1,524 6.6 -6.4°
Maximum altitude 03:06:11 62° 102° (ESE) 482 3.3 -6.0°
Drops below altitude 10° 03:09:23 10° 184° (S) 1,513 5.2 -5.5°
Sets 03:11:23 0° 187° (S) 2,375 6.1 -5.2°
